STARLINK-5822, 57064

Orbit data source: Space-Track

STARLINK-5822, 57064 is a payload satellite owned by SpaceX/Seattle (US) in LEO that was launched on Thu, 22 Jun 2023 UTC via an FALCON 9 launch vehicle from the Air Force Western Test Range (AFWTR). Payload-class satellites include a variety of spacecraft equipped with specific instruments for various scientific and technological missions. These include communications satellites like Starlink; space stations such as the ISS; scientific satellites like the Hubble; Earth observation satellites from companies like Planet Labs, Umbra, and HawkEye 360; GPS; miniature CubeSats for education and research; and military/defense satellites.

Loading next visibility...
Identifier
57064, 2023-088S
Orbit
LEO
Country
Flag of USUS
Related business
Manufacturer
SpaceX/Seattle
Mission
Operational Commercial Communications
Bus & Motor
STARLINK, Unknown motor
Mass
305 kg wet, ~290 kg dry
Launch date (UTC)
Icon of a cake. It is the launch day of the satellite!2023-06-22 (3 years ago)
Launch vehicle
FALCON 9
Launch site
Air Force Western Test Range (AFWTR)
Object type
Payload
Rocket body
Debris
Shape & HBR
Box + 1 Pan, 10.1 m
Radar Cross Section
11.087 m², Large (>1 m²)

Expand to show TLE details & history
Last TLE update: 2 days ago

TLE from 2 days ago
0 STARLINK-5822
1 57064U 23088S   26171.21272285 -.00000125  00000-0  50210-5 0  9991
2 57064  43.0050 251.5167 0002472 289.8267  70.2318 15.27578317165032
Epoch: 2026-06-20T05:06Z
TLE epoch observation values (Epoch: 2026-06-20T05:06:19.254Z)
Latitude
-0.00002°
Longitude
-93.49412°
Altitude
482.257 km
Speed
7.626 km/s
True Right ascension
16h 46m 04s
True Declination
0° 00' 00"
Sunlit
Object was in full shadow at epoch
Visualization orbit readout
Latitude
Unknown
Longitude
Unknown
Altitude
Unknown
Speed
Unknown
Apparent Right ascension
Unknown
Apparent Declination
Unknown
Sunlit
N/A
Visualization observer readout
Local Sidereal Time
00:39:30
Azimuth
Unknown
Elevation
Unknown
Doppler factor
Unknown
Orbital elements
Apogee altitude
486.695 km
Perigee altitude
483.302 km
Semi-major axis
6,863.135 km
Eccentricity
0.00025
Inclination
43.005°
RAAN
251.5167°
Arg. of periapsis
289.8267°
True anomaly
70.25846°
Mean anomaly
70.2318°
Eccentric anomaly
70.24513°
Mean motion
3.81733 °/min
Orbital period
94.31 mins
BSTAR
0.000005021
Loading maneuver chart data...
Computing Atmospheric mass density...
Loading historical data...
Loading historical data...
Loading historical data...
Loading historical data...
Loading historical data...
Loading historical data...
Loading historical data...

Documentation

Showing up to 5 results
|